[[{"header":{"parameterUnit":"m.s-1","parameterCategory":1,"la1":30.2991,"la2":30.254,"lo1":-89.0895,"lo2":-89.0444,"dy":0.0017,"dx":0.0017,"nx":28,"ny":28,"refTime":"2023-09-21T21:00:00:Z","depth":0,"parameterNumber":2,"parameterNumberName":"U-component_of_WINDS"},"data":[0,0,0,0,0,0,0,0,0,0,0,0,0,0,0,0,0,0,0,0,0,0,0,0,0,0,0,0,0,0,0,0,0,0,0,0,0,0,0,0,0,0,0,0,0,0,0,0,0,0,0,0,0,0,0,0,0,0,-4.4165,-4.4166,0,-4.4228,-4.4229,-4.423,-4.407,-4.4065,-4.406,-4.4056,-4.4118,-4.4124,-4.413,0,0,0,0,0,0,0,0,0,0,0,0,0,-4.3903,-4.3909,-4.4165,-4.4166,-4.4166,-4.4228,-4.4229,-4.423,-4.4071,-4.4065,-4.4059,-4.4053,-4.4116,-4.4123,-4.4131,0,0,0,0,0,0,0,0,0,0,0,0,0,-4.3997,-4.3911,-4.4165,-4.4095,-4.4089,-4.4228,-4.4229,-4.423,-4.4073,-4.4065,-4.4058,-4.4051,-4.4113,-4.4123,-4.4132,-4.4341,0,0,-4.4161,-4.4165,0,0,0,0,0,0,0,0,-4.3992,-4.4007,-4.4104,-4.41,-4.4094,-4.4134,-4.4159,-4.4267,-4.4074,-4.4079,-4.4056,-4.4047,-4.4129,-4.4137,-4.4165,-4.4343,-4.4346,-4.4162,-4.4168,-4.4172,-4.4174,0,0,0,0,0,0,0,-4.3986,-4.4003,-4.419,-4.4106,-4.41,-4.4059,-4.4064,-4.4179,-4.4145,-4.4078,-4.4066,-4.4076,-4.4125,-4.4156,-4.4165,-4.4347,-4.4162,-4.417,-4.4176,-4.418,-4.4699,-4.4707,0,0,0,0,0,0,-4.3988,-4.3999,-4.4188,-4.4192,-4.4023,-4.407,-4.4076,-4.4128,-4.4143,-4.4139,-4.4083,-4.4069,-4.4144,-4.4155,-4.4167,-4.4412,-4.4172,-4.418,-4.4186,-4.4691,-4.4701,-4.471,0,0,0,0,0,0,-4.3983,-4.4007,-4.4185,-4.4092,-4.4112,-4.4083,-4.4143,-4.4134,-4.4165,-4.4147,-4.414,-4.4121,-4.4138,-4.4154,-4.4299,-4.4412,-4.4185,-4.4193,-4.4682,-4.4694,-4.4706,-4.4905,0,0,0,0,0,0,-4.3977,-4.4006,-4.4086,-4.4095,-4.4117,-4.4317,-4.415,-4.414,-4.4182,-4.4165,-4.4182,-4.4177,-4.4134,-4.4286,-4.4308,-4.4421,-4.4201,-4.4671,-4.4687,-4.4702,-4.4888,-4.4922,-4.4952,0,0,0,0,0,-4.3968,-4.4138,-4.4091,-4.4114,-4.4217,-4.4324,-4.4337,-4.4284,-4.4192,-4.4271,-4.426,-4.4177,-4.4396,-4.4302,-4.4326,-4.4443,-4.4664,-4.4683,-4.4701,-4.4874,-4.4915,-4.4951,0,0,0,0,0,0,-4.4142,-4.4138,-4.4085,-4.4264,-4.4296,-4.4297,-4.4396,-4.433,-4.4388,-4.4369,-4.43,-4.4305,-4.4463,-4.4467,-4.4362,-4.4646,-4.4514,-4.4538,-4.4637,-4.4677,-4.4708,-4.4704,-4.4209,0,0,0,0,0,-4.4201,-4.429,-4.4282,-4.444,-4.4459,-4.4426,-4.447,-4.4427,-4.4456,-4.4469,-4.4467,-4.4499,-4.4574,-4.4626,-4.4694,-4.4888,-4.4889,-4.498,-4.5012,-4.5038,-4.506,-4.5162,-4.5203,-4.477,-4.477,-4.477,0,0,-4.4324,-4.4333,-4.4394,-4.4476,-4.4495,-4.4588,-4.4437,-4.4542,-4.4609,-4.4484,-4.4621,-4.4622,-4.4652,-4.4823,-4.4897,-4.4831,-4.518,-4.5062,-4.5083,-4.509,-4.5185,-4.5226,-4.5263,-4.4783,-4.478,-4.4778,0,0,-4.4596,-4.4613,-4.4746,-4.4769,-4.4801,-4.4778,-4.481,-4.4822,-4.4818,-4.4955,-4.4863,-4.4942,-4.5074,-4.5099,-4.5129,-4.5412,-4.5338,-4.5436,-4.5603,-4.5703,-4.5737,-4.5767,-4.5868,-4.5905,-4.5458,-4.5458,-4.5459,0,-4.4745,-4.4882,-4.4823,-4.4935,-4.4973,-4.4865,-4.5,-4.5025,-4.5077,-4.5106,-4.5031,-4.5195,-4.5208,-4.5382,-4.5452,-4.548,-4.5514,-4.5434,-4.5737,-4.5767,-4.5794,-4.5889,-4.5927,-4.547,-4.5469,-4.5467,-4.5466,0,-4.5063,-4.516,-4.5264,-4.5319,-4.5369,-4.5492,-4.5451,-4.5509,-4.5462,-4.5446,-4.5587,-4.5598,-4.5668,-4.5706,-4.566,-4.5875,-4.5832,-4.5749,-4.5615,-4.5848,-4.5936,-4.5972,-4.5487,-4.5483,-4.5479,-4.5476,0,0,-4.5446,-4.5468,-4.5507,-4.5531,-4.5558,-4.5631,-4.5749,-4.5818,-4.5869,-4.5908,-4.6005,-4.612,-4.6043,-4.6077,-4.6033,-4.6122,-4.6345,-4.6027,-4.6026,-4.6086,-4.6582,-4.6645,-4.6688,-4.6296,-4.6303,-4.6308,-4.6579,0,-4.5714,-4.5917,-4.5869,-4.6069,-4.6157,-4.6056,-4.6158,-4.6186,-4.6175,-4.6247,-4.6233,-4.6316,-4.6208,-4.6228,-4.6312,-4.6301,-4.6444,-4.628,-4.6384,-4.6389,-4.638,-4.6734,-4.6801,-4.7056,-4.6614,-4.6619,-4.6624,0,-4.6055,-4.6109,-4.632,-4.6333,-4.6368,-4.6461,-4.652,-4.6591,-4.662,-4.6606,-4.6645,-4.6584,-4.6699,-4.6565,-4.6723,-4.6613,-4.6652,-4.6654,-4.6662,-4.6669,-4.652,-4.6751,-4.7136,-4.7175,-4.6678,-4.6673,-4.6669,0,-4.6313,-4.6439,-4.6581,-4.6604,-4.6624,-4.6691,-4.6702,-4.6724,-4.6769,-4.682,-4.6849,-4.6913,-4.6948,-4.6999,-4.6956,-4.6863,-4.7121,-4.6983,-4.7112,-4.7113,-4.717,-4.7167,-4.7567,-4.7197,-4.7196,-4.7196,-4.7195,0,-4.6618,-4.675,-4.6697,-4.6785,-4.693,-4.6872,-4.7017,-4.7016,-4.7036,-4.7121,-4.7037,-4.7118,-4.7057,-4.7133,-4.71,-4.7236,-4.7252,-4.7243,-4.7233,-4.7251,-4.7252,-4.7276,-4.7257,-4.7206,-4.7203,-4.7201,-4.72,0,-4.6931,-4.69,-4.7048,-4.7055,-4.706,-4.7167,-4.7172,-4.7253,-4.7235,-4.7344,-4.7366,-4.7339,-4.7423,-4.7386,-4.7475,-4.7453,-4.7627,-4.7593,-4.7618,-4.7609,-4.774,-4.7728,-4.8169,-4.8224,-4.7818,-4.7822,-4.7826,0,-4.7127,-4.7227,-4.7245,-4.7296,-4.7314,-4.7398,-4.7443,-4.739,-4.7441,-4.7482,-4.7558,-4.7636,-4.7695,-4.7835,-4.7823,-4.789,-4.7857,-4.8007,-4.7867,-4.7882,-4.7859,-4.7854,-4.7863,-4.8035,-4.804,-4.8044,-4.8047,0,-4.7479,-4.7459,-4.7529,-4.7594,-4.7652,-4.77,-4.7741,-4.7787,-4.7736,-4.7797,-4.7884,-4.793,-4.8022,-4.81,-4.816,-4.8169,-4.8101,-4.8091,-4.8125,-4.8144,-4.8154,-4.815,-4.7695,-4.8081,-4.8078,-4.8075,-4.8073,-4.8072,-4.7739,-4.7823,-4.7849,-4.793,-4.7955,-4.7996,-4.8072,-4.8065,-4.8137,-4.8208,-4.8172,-4.8273,-4.8299,-4.8372,-4.8392,-4.8469,-4.841,-4.8458,-4.847,-4.8483,-4.85,-4.8142,-4.848,-4.8479,-4.8478,-4.8477,-4.8476,0,-4.8086,-4.8098,-4.8173,-4.8234,-4.8298,-4.8228,-4.827,-4.8327,-4.8417,-4.8448,-4.8509,-4.8609,-4.8684,-4.8679,-4.8748,-4.8811,-4.8781,-4.8831,-4.8825,-4.8829,-4.8549,-4.8514,-4.8854,-4.8854,-4.8854,-4.8854,-4.8854,-4.8854,-4.8274,-4.8413,-4.8397,-4.8547,-4.8558,-4.8657,-4.8687,-4.8723,-4.8748,-4.8863,-4.8926,-4.8923,-4.8939,-4.9009,-4.9075,-4.9071,-4.91,-4.9163,-4.9147,-4.8886,-4.8849,-4.8813,-4.8779,-4.917,-4.917,-4.942,-4.9422,-4.9424]},{"header":{"parameterUnit":"m.s-1","parameterCategory":1,"la1":30.2991,"la2":30.254,"lo1":-89.0895,"lo2":-89.0444,"dy":0.0017,"dx":0.0017,"nx":28,"ny":28,"refTime":"2023-09-21T21:00:00:Z","depth":0,"parameterNumber":3,"parameterNumberName":"V-component_of_WINDS"},"data":[0,0,0,0,0,0,0,0,0,0,0,0,0,0,0,0,0,0,0,0,0,0,0,0,0,0,0,0,0,0,0,0,0,0,0,0,0,0,0,0,0,0,0,0,0,0,0,0,0,0,0,0,0,0,0,0,0,0,-1.4839,-1.484,0,-1.4901,-1.4901,-1.4902,-1.4933,-1.4933,-1.4933,-1.4933,-1.4996,-1.4997,-1.4999,0,0,0,0,0,0,0,0,0,0,0,0,0,-1.4748,-1.4749,-1.4839,-1.484,-1.4841,-1.4901,-1.4901,-1.4902,-1.4933,-1.4933,-1.4933,-1.4933,-1.4995,-1.4997,-1.4999,0,0,0,0,0,0,0,0,0,0,0,0,0,-1.4796,-1.475,-1.4839,-1.4863,-1.4866,-1.49,-1.4902,-1.4903,-1.4933,-1.4933,-1.4933,-1.4933,-1.4995,-1.4997,-1.5,-1.5015,0,0,-1.5007,-1.5008,0,0,0,0,0,0,0,0,-1.4793,-1.4799,-1.4859,-1.4862,-1.4865,-1.4909,-1.4892,-1.494,-1.4933,-1.4907,-1.4933,-1.4933,-1.4967,-1.4972,-1.4983,-1.5018,-1.5021,-1.5007,-1.5009,-1.501,-1.5011,0,0,0,0,0,0,0,-1.479,-1.4797,-1.4864,-1.486,-1.4863,-1.4871,-1.4878,-1.4902,-1.4936,-1.491,-1.4912,-1.4919,-1.4969,-1.4981,-1.4985,-1.5021,-1.5007,-1.501,-1.5011,-1.5012,-1.5071,-1.5071,0,0,0,0,0,0,-1.4783,-1.4794,-1.4862,-1.4865,-1.4828,-1.4872,-1.488,-1.4895,-1.4936,-1.4942,-1.4919,-1.492,-1.4976,-1.4982,-1.4987,-1.5008,-1.501,-1.5012,-1.5014,-1.5071,-1.5071,-1.5071,0,0,0,0,0,0,-1.4781,-1.4788,-1.4859,-1.483,-1.484,-1.4874,-1.489,-1.4896,-1.4908,-1.4943,-1.4949,-1.4925,-1.4977,-1.4984,-1.5008,-1.501,-1.5013,-1.5016,-1.5071,-1.5071,-1.5071,-1.5048,0,0,0,0,0,0,-1.4778,-1.4787,-1.4794,-1.483,-1.4841,-1.4879,-1.489,-1.4897,-1.4913,-1.4915,-1.4951,-1.4956,-1.4977,-1.5004,-1.501,-1.5014,-1.5018,-1.5071,-1.5071,-1.5071,-1.5049,-1.5048,-1.5046,0,0,0,0,0,-1.4774,-1.4785,-1.4794,-1.4802,-1.485,-1.4879,-1.4885,-1.4909,-1.4913,-1.4919,-1.4941,-1.4955,-1.5009,-1.5006,-1.5013,-1.5018,-1.5071,-1.5071,-1.5071,-1.505,-1.5048,-1.5046,0,0,0,0,0,0,-1.4749,-1.4791,-1.4801,-1.4824,-1.4847,-1.4884,-1.4893,-1.4906,-1.4929,-1.4931,-1.4959,-1.4967,-1.4988,-1.5005,-1.5001,-1.5034,-1.5041,-1.5043,-1.5022,-1.5021,-1.502,-1.5015,-1.502,0,0,0,0,0,-1.4746,-1.4766,-1.4801,-1.4818,-1.4829,-1.4859,-1.4872,-1.4888,-1.4914,-1.4924,-1.4948,-1.4972,-1.4995,-1.5009,-1.5031,-1.5051,-1.5059,-1.5058,-1.5057,-1.5056,-1.5057,-1.5068,-1.5068,-1.5071,-1.5071,-1.5071,0,0,-1.474,-1.4765,-1.4776,-1.4813,-1.4834,-1.4853,-1.4867,-1.4888,-1.4902,-1.4927,-1.4951,-1.4969,-1.4998,-1.502,-1.5031,-1.5035,-1.5057,-1.5056,-1.5055,-1.5056,-1.5068,-1.5068,-1.5067,-1.5071,-1.5071,-1.5071,0,0,-1.4739,-1.4761,-1.4777,-1.4796,-1.4826,-1.4846,-1.4849,-1.4884,-1.4897,-1.4921,-1.494,-1.4958,-1.4996,-1.5015,-1.503,-1.5035,-1.5049,-1.5042,-1.5035,-1.5046,-1.5046,-1.5045,-1.5047,-1.5047,-1.5043,-1.5043,-1.5043,0,-1.4728,-1.4759,-1.4783,-1.4802,-1.4818,-1.4841,-1.4857,-1.4875,-1.4911,-1.4921,-1.4925,-1.4972,-1.4994,-1.502,-1.5021,-1.5033,-1.5037,-1.5038,-1.5044,-1.5044,-1.5044,-1.5046,-1.5046,-1.5042,-1.5042,-1.5042,-1.5042,0,-1.4743,-1.4764,-1.4773,-1.4807,-1.4823,-1.4841,-1.4868,-1.4881,-1.4896,-1.4914,-1.4938,-1.4964,-1.4992,-1.5,-1.5014,-1.5028,-1.5029,-1.5038,-1.5046,-1.5042,-1.5044,-1.5045,-1.504,-1.504,-1.5041,-1.5041,0,0,-1.473,-1.4775,-1.4778,-1.4793,-1.4828,-1.4844,-1.4862,-1.4889,-1.49,-1.4924,-1.4939,-1.497,-1.4978,-1.4995,-1.5012,-1.5021,-1.5023,-1.5029,-1.503,-1.5026,-1.5039,-1.5032,-1.5033,-1.5032,-1.5032,-1.5032,-1.5037,0,-1.4733,-1.4767,-1.4789,-1.4814,-1.4833,-1.4854,-1.487,-1.4892,-1.491,-1.4928,-1.4948,-1.4969,-1.4979,-1.4989,-1.4999,-1.502,-1.5026,-1.502,-1.5047,-1.5047,-1.5039,-1.5034,-1.5027,-1.503,-1.5038,-1.5038,-1.5038,0,-1.4743,-1.4765,-1.4792,-1.4823,-1.4832,-1.4845,-1.4871,-1.4889,-1.4914,-1.4926,-1.4945,-1.4961,-1.4981,-1.4986,-1.5013,-1.5009,-1.5021,-1.5033,-1.5034,-1.5037,-1.5042,-1.5037,-1.5032,-1.5032,-1.504,-1.5039,-1.5039,0,-1.473,-1.4766,-1.4787,-1.4799,-1.4836,-1.4845,-1.4861,-1.4886,-1.4901,-1.4923,-1.4933,-1.4957,-1.4971,-1.4989,-1.5012,-1.5013,-1.5036,-1.5044,-1.5047,-1.5046,-1.5051,-1.5051,-1.5047,-1.5059,-1.5059,-1.5059,-1.5059,0,-1.4732,-1.4747,-1.4781,-1.4794,-1.4811,-1.4836,-1.4852,-1.487,-1.4892,-1.4908,-1.4928,-1.4943,-1.4972,-1.499,-1.5008,-1.5028,-1.5034,-1.5044,-1.5048,-1.5042,-1.5041,-1.505,-1.5051,-1.5059,-1.5059,-1.5059,-1.5059,0,-1.472,-1.4744,-1.4767,-1.48,-1.4808,-1.4819,-1.4847,-1.486,-1.4878,-1.4898,-1.4905,-1.4933,-1.4956,-1.498,-1.5011,-1.5023,-1.5041,-1.5048,-1.5032,-1.5035,-1.5037,-1.5036,-1.504,-1.5041,-1.5051,-1.5051,-1.5051,0,-1.472,-1.4732,-1.4766,-1.4778,-1.4793,-1.4812,-1.4826,-1.4851,-1.4865,-1.4894,-1.4903,-1.4927,-1.4947,-1.4982,-1.5006,-1.5029,-1.5036,-1.5036,-1.504,-1.5033,-1.5036,-1.5035,-1.5036,-1.5035,-1.5034,-1.5034,-1.5034,0,-1.4717,-1.4728,-1.4748,-1.4771,-1.4788,-1.4808,-1.4828,-1.4837,-1.4866,-1.488,-1.4903,-1.4919,-1.4949,-1.4973,-1.4999,-1.5015,-1.5029,-1.5032,-1.5034,-1.5028,-1.5018,-1.5023,-1.5029,-1.5032,-1.5032,-1.5033,-1.5033,-1.5033,-1.4712,-1.4723,-1.4748,-1.4769,-1.4787,-1.4805,-1.4819,-1.4838,-1.4857,-1.4884,-1.4897,-1.492,-1.4944,-1.4981,-1.4996,-1.5014,-1.5019,-1.5022,-1.5022,-1.5023,-1.5021,-1.5015,-1.5019,-1.5019,-1.5019,-1.5019,-1.5019,0,-1.471,-1.4726,-1.4746,-1.4773,-1.479,-1.4801,-1.4824,-1.4837,-1.4856,-1.4878,-1.4897,-1.4923,-1.4945,-1.497,-1.4994,-1.5003,-1.501,-1.5009,-1.5008,-1.5012,-1.5016,-1.5011,-1.5002,-1.5002,-1.5002,-1.5002,-1.5002,-1.5002,-1.4711,-1.473,-1.4743,-1.4772,-1.4788,-1.481,-1.4822,-1.4839,-1.4856,-1.4884,-1.4902,-1.4918,-1.4941,-1.4966,-1.4987,-1.4994,-1.5002,-1.4998,-1.5007,-1.501,-1.5011,-1.5013,-1.5009,-1.5,-1.5,-1.5001,-1.5001,-1.5001]}]]